Погода в Соловьевске

Погода в Соловьевске : погода сейчас, прогноз погоды и архив. Всё, что Вы хотите узнать о погоде в Соловьевске!

Поиск расширенной информации на нашем сайте:

Другие новости

Новости СМИ2

Главная страница сайта

Новости сайта

03.07.2017

Напоминаем, что на нашем специализированном сайте Метеоцентр.Азия вы можете получить высокодетализированные автоматические прогнозы погоды по пунктам России, СНГ и мира в авиационном формате (включающие направление и скорость ветра, видимость, явления погоды, количество и форму облачности, нижнюю и верхнюю границу облачности).


Погода в Соловьевске - сегодня

Время (UTC), дата Ветер
(°,м/с) 
Видим.   Явления Облачность Т
(°С)
Тd
(°С)
f(%) Тe
(°С)
Pmin
(гПа)
dP
(гПа)
Po
(мм)
O2
(г/м3)
Тmin Tmax R s Состояние
почвы
21 13.04.18 350 (С) 20000 м    4/0 средняя, верхняя 
[Ac trans|Ci sp]
-8.1 -12.3 72 -10  1022.9  1.1  709  295           
03 14.04.18 300 (СЗ) 20000 м    1/0 верхняя 
[Ci sp]
+4.6 -7.4 41 +3  1021.5  0.2  710  282           
09 14.04.18 250 (З) 4{10}  20000 м    ясно 
+7 -5 42 +6  1017.3  -1.4  708  279           
15 14.04.18 220 (ЮЗ) 20000 м    ясно 
-2.6 -4.8 85 -5  1020.2  0.2  708  288           
18 14.04.18 200 (Ю) 20000 м    ясно 
-3.5 -6.7 78 -6  1019.9  -0.5  708  289           
21 14.04.18 160 (Ю) 20000 м    3/0 верхняя 
[Ci sp]
-5.1 -7.2 85 -8  1018.9  -1.4  707  291           
03 15.04.18 190 (Ю) 6-10{10}  20000 м    ясно 
+7.2 -7.4 35 +5  1012.9  -1.8  705  277           
15 15.04.18 150 (ЮВ) 20000 м    3/0 средняя, верхняя 
[Ac trans|Ci sp]
+2.9 -5.2 55 1005.1  -0.6  699  279           
18 15.04.18 160 (Ю) 20000 м    1/0 верхняя 
[Ci sp]
-0 -5.3 67 -1  1004.3  -1.5  698  281           
21 15.04.18 120 (ЮВ) 20000 м    9/0 средняя, верхняя 
[Ac trans|Ci sp]
+0.1 -5.2 67 -2  1003.2  -1  697  281           
03 16.04.18 360 (С) 20000 м    10/0 средняя 
[Ac As]
+9.2 -2.8 43 +9  1001.5  0.5  697  272           
15 16.04.18 310 (СЗ) 20000 м    8/0 средняя, верхняя 
[Ac trans|Ci sp]
+6.1 -11.3 27 +5  1005.3  1.2  699  277           
18 16.04.18 310 (СЗ) 20000 м    8/0 средняя, верхняя 
[Ac trans|Ci sp]
+0.3 -9.4 48 1008.2  1.3  700  283           
03 17.04.18 360 (С) 20000 м    ясно 
+11.3 -9.2 23 +11  1010.3  0.8  704  273           
09 17.04.18 230 (ЮЗ) 20000 м    10/0 средняя, верхняя 
[Ac trans|Ci sp]
+13.4 -10.7 18 +13  1006.8  -1.5  702  270           
15 17.04.18 130 (ЮВ) 20000 м    6/0 средняя, верхняя 
[Ac trans|Ci sp]
+5.3 -5 47 +4  1007.6  -1  701  277           
18 17.04.18 130 (ЮВ) 20000 м    10/0 средняя, верхняя 
[Ac trans|Ci sp]
+5.7 -5.2 45 +3  1005.3  -2.1  699  276           
21 17.04.18 130 (ЮВ) 3{10}  20000 м    10/0 средняя 
[Ac As]
+5.9 -4.1 49 +5  1005.8  0.6  700  276           
03 18.04.18 010 (С) 20000 м  {дождь}  10/0 средняя 
[Ac As]
+7.4 +4.4 81 +6  1006.5  0.6  701  274           
09 18.04.18 160 (Ю) 20000 м    4/3 1000 м верхняя 
[Sc|Ci sp]
+12.4 +2 49 +13  1004.9  -0.3  700  269           
15 18.04.18 170 (Ю) 20000 м    ясно 
+4 +1.7 85 +2  1009.2  0.9  702  278           
18 18.04.18 200 (Ю) 20000 м    ясно 
+1.4 +0.5 94 +1  1011.8  1.7  703  282           
21 18.04.18 310 (СЗ) 20000 м    3/0 верхняя 
[Ci sp]
+0.6 -0.6 92 -1  1013.4  1.2  704  283           
03 19.04.18 360 (С) 20000 м    10/0 средняя 
[Ac As]
+9.5 -4.3 37 +9  1011.9  -0.2  705  275           
21 19.04.18 330 (СЗ) 4{16}  20000 м    6/0 средняя, верхняя 
[Ac trans|Ci sp]
-1.5 -3.8 84 -4  1014.6  2.2  704  286           
Время (UTC), дата Ветер
(°,м/с) 
Видим.   Явления Облачность Т
(°С)
Тd
(°С)
f(%) Тe
(°С)
Pmin
(гПа)
dP
(гПа)
Po
(мм)
O2
(г/м3)
Тmin Tmax R s Состояние
почвы

Для получения пояснительной информации подведите курсор к названию столбца.

ПОГОДА в Соловьевске - архив

Всё, что Вы хотите узнать о погоде в Соловьевске - удобно и подробно!

Выберите нужную дату (начиная с 1 января 2015* года) и нажмите кнопку "Найти".
Будут отображены архивные сводки погоды по пункту Соловьевск, начиная с указанной даты.


Отображать данные в формате CSV (для использования в таблицах Excel)


Внимание! Наш архив погоды предназначен исключительно для личного некоммерческого использования в познавательных целях. Если Вам необходимы официальные справки о состоянии погоды (для производственных, юридических, коммерческих и т.п. целей), обращайтесь в органы Росгидромета.

*Примечание: данная дата относится к архиву по метеостанциям СССР (Россия, СНГ, Балтия).
Архив по метеостанциям Зарубежной Европы и Азии (кроме Китая) хранится 10 дней, по другим регионам земного шара (Китай, Африка, Америка, Австралия, Океания) - 1 день.

Соловьевск - район местоположения метеостанции


Название, широта, долгота, высота метеостанции:
Соловьевск 49.9°ш. 115.8°д. 623 м над ур. моря [Российская Федерация]

Дополнительная информация

В oтличие oт бoльшинства пoгoдных сайтoв мы публикуем пoдрoбную метеoинфoрмацию в детальнoм прoфессиoнальнoм фoрмате.

Характеристики температуры и влажнoсти вoздуха измеряются на высoте 2 м в тени вдали oт зданий и деревьев.
Скoрoсть ветра измеряется на высoте 10 м (на урoвне рoста челoвека скoрoсть ветра ниже в 1.5-2 раза). Если метеoстанция нахoдится в гoрoде или в лесу, тo скoрoсть ветра занижена на 2-4 м/с пo сравнению с oткрытым местoм. Скoрoсть ветра над акватoриями крупных рек и oзёр, а также на вершинах хoлмoв на 2-5 м/с выше, чем в oбычных услoвиях.
Атмoсфернoе давление в разных тoчках местнoсти мoжет значительнo oтличаться oт давления на метеoстанции, в зависимoсти oт услoвий рельефа (при пoдъёме на 10 м давление пoнижается примернo на 1 мм рт.ст.).